Weather Service Report


700 
ASUS44 KSJT 212010
RWRSJT
WEST CENTRAL TEXAS REGIONAL WEATHER ROUNDUP
NATIONAL WEATHER SERVICE SAN ANGELO TX
200 PM CST FRI NOV 21 2014

NOTE: "FAIR" INDICATES FEW OR NO CLOUDS BELOW 12,000 FEET WITH NO
SIGNIFICANT WEATHER AND/OR OBSTRUCTIONS TO VISIBILITY.

TXZ049-054-064>066-071>073-076>078-098-099-113-114-127-128-139-140-
154-155-168>170-212100
...LOCATIONS ACROSS WEST CENTRAL TEXAS...
  
CITY           SKY/WX    TMP DP  RH WIND       PRES   REMARKS
SAN ANGELO     SUNNY     75  53  46 S14       29.98F                  
ABILENE        MOSUNNY   70  53  54 S15       30.00F                  
DYESS AFB      NOT AVBL                                               
JUNCTION       MOSUNNY   74  55  51 S8        30.00F                  
SWEETWATER     PTSUNNY   70  49  48 S8        30.02F                  
BROWNWOOD      PTSUNNY   73  55  53 S10G16    30.00F                  
COLEMAN        MOCLDY    74  59  59 S12       29.99F                  
SONORA         PTSUNNY   70  55  60 S14       30.04F                  
OZONA          FAIR      70  54  56 S13G21    30.02F                  
BRADY          MOSUNNY   75  52  43 S13       29.99F                  
$$

TEXAS PANHANDLE/OKLAHOMA PANHANDLE
  
CITY           SKY/WX    TMP DP  RH WIND       PRES   REMARKS
AMARILLO       SUNNY     58  37  45 S6        29.98F                  
BORGER         SUNNY     57  35  43 VRB6      29.98F                  
CANADIAN       SUNNY     53  37  53 CALM      29.98F                  
DALHART        SUNNY     58  29  33 S14       29.97F                  
DUMAS            N/A     58  31  35 S7        29.97F                  
GUYMON         NOT AVBL                                               
HEREFORD       CLEAR     62  35  36 CALM      29.98F                  
PAMPA          CLEAR     57  38  48 S8        29.98F                  
PERRYTON       SUNNY     55  35  45 S5        29.97F                  
$$

SOUTHERN PANHANDLE/SOUTH PLAINS/ROLLING PLAINS
  
CITY           SKY/WX    TMP DP  RH WIND       PRES   REMARKS
LUBBOCK        MOSUNNY   65  31  28 SE12      29.97F                  
SNYDER         PTSUNNY   66  47  51 S10       29.99F                  
CHILDRESS      SUNNY     50  41  71 CALM      30.01F                  
SEMINOLE       PTCLDY    69  32  26 S7        29.99F                  
$$

PERMIAN BASIN
  
CITY           SKY/WX    TMP DP  RH WIND       PRES   REMARKS
MIDLAND        MOSUNNY   69  46  43 S12       29.97F                  
ODESSA         MOSUNNY   69  43  38 S10       29.98F                  
WINK           SUNNY     68  36  30 SE8       29.95F                  
$$

FAR WEST/SOUTHWEST MOUNTAINS/TRANS PECOS
  
CITY           SKY/WX    TMP DP  RH WIND       PRES   REMARKS
ALPINE         CLEAR     71  31  22 S16       30.04F                  
DRYDEN           N/A     62  55  77 E8        29.98F                  
EL PASO        PTSUNNY   67  26  21 S5        29.95F                  
FORT STOCKTON  SUNNY     69  44  40 SE17G28   29.95F                  
GUADALUPE PASS MOSUNNY   64  24  21 VRB5      30.03F                  
MARFA          SUNNY     68  34  28 SE12      30.02F                  
PECOS          CLEAR     69  34  27 NE12      29.93F HAZE             
$$

DALLAS/FORT WORTH METROPLEX
  
CITY           SKY/WX    TMP DP  RH WIND       PRES   REMARKS
DFW AIRPORT    CLOUDY    65  60  84 S12       30.05F                  
FTW MEACHAM    CLOUDY    68  60  75 SE12      30.03F HAZE             
DAL-EXECUTIVE  CLOUDY    67  61  81 S6        30.05F HAZE             
GRAND PRAIRIE  CLOUDY    64  63  94 S9        30.07F                  
ADDISON        CLOUDY    66  61  82 SE12G17   30.07F FOG              
MESQUITE       CLOUDY    66  61  82 SE7       30.07F                  
LANCASTER      CLOUDY    66  60  79 SE9       30.07F                  
$$

NORTH CENTRAL TEXAS
  
CITY           SKY/WX    TMP DP  RH WIND       PRES   REMARKS
SHRMAN/DENISON CLOUDY    65  61  88 SE8       30.07F                  
GAINESVILLE    PTSUNNY   66  59  76 SE14G20   30.06F                  
BRIDGEPORT     MOCLDY    72  58  62 S10G18    30.03F                  
DENTON         CLOUDY    67  60  78 SE10      30.04F                  
WAXAHACHIE     CLOUDY    65  63  95 S8        30.06F                  
GRANBURY       CLOUDY    70  61  74 SE7       30.03F                  
$$

WESTERN NORTH TEXAS
  
CITY           SKY/WX    TMP DP  RH WIND       PRES   REMARKS
WICHITA FALLS  PTSUNNY   64  51  62 VRB6      30.00F                  
VERNON         NOT AVBL                                               
BRECKENRIDGE   MOCLDY    72  53  51 S13       30.00F HAZE             
COMANCHE       PTSUNNY   72  58  61 S12G18    30.02F                  
$$

CENTRAL AND SOUTH CENTRAL TEXAS
  
CITY           SKY/WX    TMP DP  RH WIND       PRES   REMARKS
AUSTIN/BERGSTM PTSUNNY   74  65  73 S9        30.01F                  
WACO           CLOUDY    70  63  78 SE13      30.04F                  
HILLSBORO      CLOUDY    68  62  81 SE13      30.05F                  
TEMPLE         CLOUDY    70  63  78 SE12      30.03F                  
KILLEEN-GRAY   PTSUNNY   75  61  62 SE15      30.01F                  
FORT HOOD      MOSUNNY   77  63  61 SE12G20   30.01F                  
GEORGETOWN     CLOUDY    72  64  78 S6        30.02F                  
LAGO VISTA     CLOUDY    74  63  67 S8        30.03F                  
SAN MARCOS     PTSUNNY  N/A N/A N/A S12       30.03F                  
NEW BRAUNFELS  CLOUDY    73  65  75 S13       30.01F                  
RANDOLPH AFB   CLOUDY    72  66  83 S7        30.01F                  
SAN ANTONIO    CLOUDY    72  67  84 S7        30.02F                  
STINSON        CLOUDY    73  65  75 S9        30.00F                  
PLEASANTON     NOT AVBL                                               
LA GRANGE      CLOUDY    73  70  90 SE5       30.02F                  
GIDDINGS       CLOUDY    68  66  94 SE7       30.08F                  
$$

EAST TEXAS
  
CITY           SKY/WX    TMP DP  RH WIND       PRES   REMARKS
PARIS          CLOUDY    61  57  88 SE10      30.11F                  
CLARKSVILLE    NOT AVBL                                               
TYLER          CLOUDY    66  60  81 SE14      30.10F                  
LONGVIEW       LGT RAIN  61  59  93 SE8       30.12F FOG              
PALESTINE      CLOUDY    64  63  95 SE9       30.10F                  
NACOGDOCHES    CLOUDY    61  57  88 SE8       30.14F                  
$$

TEXAS HILL COUNTRY AND EDWARDS PLATEAU
  
CITY           SKY/WX    TMP DP  RH WIND       PRES   REMARKS
LLANO          PTCLDY    79  57  47 S12       30.02F                  
HORSESHOE BAY  CLOUDY    75  58  55 S6        30.01F                  
KERRVILLE      CLOUDY    72  64  77 S13       30.03F                  
FREDERICKSBRG  CLOUDY    72  58  62 S12       30.02F                  
ROCKSPRINGS    MOCLDY    70  55  60 MISG      30.04F                  
HONDO          CLOUDY    66  65  96 S12       30.02F                  
UVALDE         CLOUDY    73  64  74 SE9       30.00F                  
DEL RIO        CLOUDY    68  62  81 SE8       29.97F                  
$$

SOUTHEAST TEXAS
  
CITY           SKY/WX    TMP DP  RH WIND       PRES   REMARKS
COLLEGE STN    CLOUDY    67  65  93 SE10      30.07F                  
CALDWELL       CLOUDY    66  66 100 SE9       30.09F                  
CROCKETT       CLOUDY    66  66 100 S9        30.13F                  
BRENHAM        HVY RAIN  68  67  96 SE8       30.08F                  
HUNTSVILLE     CLOUDY    66  63  90 VRB5      30.09F                  
CONROE         LGT RAIN  64  63  96 SE8       30.11F                  
HOUSTON BUSH   LGT RAIN  66  65  96 SE13      30.10F FOG              
HOUSTON HOBBY  RAIN      67  66  97 SE8       30.10F FOG              
PERLAND        LGT RAIN  68  66  93 SE10      30.11F FOG              
WHARTON        CLOUDY    71  66  84 SE12      30.07F                  
$$

THE UPPER TEXAS COAST
  
CITY           SKY/WX    TMP DP  RH WIND       PRES   REMARKS
ORANGE         CLOUDY    68  58  71 SE16G23   30.17F                  
PORT ARTHUR    CLOUDY    67  59  75 SE13      30.14F                  
GALVESTON      LGT RAIN  65  64  97 NE7       30.11F                  
ANGLETON       CLOUDY    69  67  93 SE7       30.08F                  
BAY CITY       RAIN      72  68  87 SE7       30.07F                  
$$

TEXAS COASTAL BEND, RIO GRANDE PLAINS DEEP SOUTH TEXAS
  
CITY           SKY/WX    TMP DP  RH WIND       PRES   REMARKS
VICTORIA       CLOUDY    76  67  73 S20G25    30.04F                  
BEEVILLE       MOCLDY    78  66  67 SE18G25   30.00F                  
ROCKPORT       SUNNY     77  67  71 SE17      30.02F                  
PORT ARANSAS   CLEAR     73  66  79 S9        30.02F HAZE             
PORT LAVACA    CLOUDY    74  67  77 S17G23    30.05F                  
CORPUS CHRISTI PTSUNNY   78  67  68 S25G33    30.01F                  
KINGSVILLE NAS PTSUNNY   77  68  73 SE17G26   30.00F                  
COTULLA        CLOUDY    77  66  68 SE12      29.98F                  
LAREDO         CLOUDY    77  64  63 SE18      29.98F                  
BROWNSVILLE    CLOUDY    79  67  66 SE20G35   30.01F                  
PORT ISABEL    PTSUNNY   78  67  68 SE22G31   30.00F                  
HEBBRONVILLE   CLOUDY    72  68  88 SE15      30.00F                  
MCALLEN        LGT RAIN  73  70  90 S10       29.99F FOG              
WESLACO        CLOUDY    77  66  69 SE14G21   29.99F                  
FALFURRIAS     CLOUDY    78  67  69 SE17G23   29.98F                  
EDINBURG       CLOUDY    80  67  65 SE21      29.99F                  
$$

Return to Home page


Western Regional Climate Center, wrcc@dri.edu